Location: *
(41.7492°S, 135.4150°W)
Time: 21:55:21
(UTC+00:00)

METEOR M2 - Pass Details

Date: 11 July 2022
Orbit: 818 x 827 km, 98.4° (Epoch: 17 August)

Event Time Altitude Azimuth Distance (km) Brightness Sun altitude
Exits shadow 04:31:52 48° 205° (SSW) 1,083 ? -30.0°
Maximum altitude 04:33:02 59° 252° (WSW) 960 ? -30.2°
Drops below altitude 10° 04:38:19 10° 330° (NNW) 2,427 ? -31.2°
Sets 04:40:41 0° 334° (NNW) 3,354 ? -31.7°
